Regional Weather Roundup
Issued by NWS

Home | Current Version | Previous Version | Graphics & Text | Print | Product List | Glossary On
Versions: 1 2 3 4 5 6 7 8 9 10 11 12 13 14 15 16 17 18 19 20 21 22 23 24 25 26 27 28 29 30 31 32 33 34 35 36 37 38 39 40 41 42 43 44 45 46 47 48 49 50
000
ASUS43 KOAX 251202
RWRNE

WEATHER ROUNDUP FOR NEBRASKA
NATIONAL WEATHER SERVICE OMAHA NE
700 AM CDT MON JUL 25 2016

NOTES: SATELLITE DATA IS BEING USED TO AUGMENT CLOUD COVER ABOVE
       12000 FEET.
       "FAIR" INDICATES FEW OR NO CLOUDS BELOW 12,000 FEET WITH NO
       SIGNIFICANT WEATHER AND/OR OBSTRUCTIONS TO VISIBILITY.

  * THESE STATIONS DO NOT REPORT WEATHER SUCH AS RAIN...SNOW OR FOG.

NEZ001>004-019>022-054>056-251300-
NEBRASKA PANHANDLE

CITY           SKY/WX    TMP DP  RH WIND       PRES   REMARKS
SCOTTSBLUFF    CLEAR     58  54  86 E9        30.17R
6HR MIN TEMP:  57; 6HR MAX TEMP:  65;

ALLIANCE       CLEAR     55  55 100 SE7       30.18S
6HR MIN TEMP:  53; 6HR MAX TEMP:  60;

CHADRON        CLEAR     61  54  77 CALM      30.12S
6HR MIN TEMP:  60; 6HR MAX TEMP:  73;

KIMBALL        CLEAR     53  53 100 SE5       30.22S
SIDNEY         CLEAR     55  52  89 S7        30.23R
6HR MIN TEMP:  50; 6HR MAX TEMP:  56;

$$

NEZ057>060-069>072-079>082-251300-
SOUTHWEST NEBRASKA

CITY           SKY/WX    TMP DP  RH WIND       PRES   REMARKS
NORTH PLATTE   CLEAR     60  58  92 E3        30.18R
6HR MIN TEMP:  59; 6HR MAX TEMP:  67;

IMPERIAL       CLEAR     60  58  92 S3        30.18R
6HR MIN TEMP:  60; 6HR MAX TEMP:  69;

LEXINGTON      MOCLDY    62  60  94 CALM      30.17R FOG
MCCOOK         PTCLDY    62  60  93 NE5       30.16R FOG
6HR MIN TEMP:  62; 6HR MAX TEMP:  76;

OGALLALA       CLEAR     59  57  92 CALM      30.18S
$$

NEZ005>010-023>029-035>040-094-251300-
NORTH CENTRAL NEBRASKA

CITY           SKY/WX    TMP DP  RH WIND       PRES   REMARKS
VALENTINE      CLEAR     60  57  89 SW6       30.15R
6HR MIN TEMP:  56; 6HR MAX TEMP:  67;

AINSWORTH      CLEAR     58  53  85 S7        30.16R
BROKEN BOW     CLEAR     59  58  96 N3        30.16S
6HR MIN TEMP:  59; 6HR MAX TEMP:  64;

O`NEILL        MOCLDY    60  58  94 SW5       30.15R
ORD            PTCLDY    60  57  89 CALM      30.14R
6HR MIN TEMP:  59; 6HR MAX TEMP:  67;

THEDFORD       CLEAR     55  54  97 CALM      30.19S
$$

NEZ041-046>049-061>064-073>077-083>087-251300-
SOUTH CENTRAL NEBRASKA

CITY           SKY/WX    TMP DP  RH WIND       PRES   REMARKS
GRAND ISLAND   CLOUDY    64  61  90 N3        30.14R
6HR MIN TEMP:  62; 6HR MAX TEMP:  67;

AURORA         CLOUDY    64  63  97 CALM      30.13R
HASTINGS       CLOUDY    67  62  84 E6        30.15R
6HR MIN TEMP:  65; 6HR MAX TEMP:  70;

HEBRON         CLOUDY    67  64  90 NE3       30.12R
HOLDREGE       CLOUDY    64  63  94 CALM      30.16R
KEARNEY *      CLOUDY    64  61  88 CALM      30.17R
YORK           CLOUDY    64  63  94 CALM      30.13R
$$

NEZ011>018-030>034-042>045-251300-
NORTHEAST NEBRASKA

CITY           SKY/WX    TMP DP  RH WIND       PRES   REMARKS
NORFOLK        CLEAR     60  57  89 CALM      30.13R
6HR MIN TEMP:  57; 6HR MAX TEMP:  64;

ALBION         PTCLDY    58  56  91 NW5       30.13S
BLAIR          CLOUDY    67  64  91 NE8       30.10S
FREMONT        CLOUDY    65  63  93 CALM      30.11S
TEKAMAH        CLEAR     63  60  90 CALM      30.11R
6HR MIN TEMP:  59; 6HR MAX TEMP:  67;

WAYNE          PTCLDY    57  56  97 CALM      30.14R
$$

NEZ050>053-065>068-078-088>093-251300-
SOUTHEAST NEBRASKA

CITY           SKY/WX    TMP DP  RH WIND       PRES   REMARKS
LINCOLN        CLOUDY    67  65  93 CALM      30.12R
6HR MIN TEMP:  64; 6HR MAX TEMP:  72;

OMAHA EPPLEY   CLOUDY    66  62  87 N7        30.10R
6HR MIN TEMP:  65; 6HR MAX TEMP:  71;

BEATRICE       CLOUDY    67  64  90 E3        30.11R
FALLS CITY     CLOUDY    68  66  93 CALM      30.08R
6HR MIN TEMP:  68; 6HR MAX TEMP:  70;

NEBRASKA CITY  CLOUDY    66  66 100 NE6       30.10S
PLATTSMOUTH    CLOUDY    67  64  91 E3        30.12R
$$

NEZ044-045-051>053-067-251300-
OMAHA AREA

CITY           SKY/WX    TMP DP  RH WIND       PRES   REMARKS
OMAHA EPPLEY   CLOUDY    66  62  87 N7        30.10R
6HR MIN TEMP:  65; 6HR MAX TEMP:  71;

BLAIR          CLOUDY    67  64  91 NE8       30.10S
FREMONT        CLOUDY    65  63  93 CALM      30.11S
MILLARD        MOCLDY    69  64  85 SE5       30.11R
OFFUTT AFB     CLOUDY    65  63  94 E2        30.10R
PLATTSMOUTH    CLOUDY    67  64  91 E3        30.12R
WAHOO          FAIR      66  64  93 CALM      30.11R
$$




USA.gov is the U.S. government's official web portal to all federal, state and local government web resources and services.